| time (UTC) | temp C | wind direction | speed KPH | gust KPH | rain 1hr cm | rain 24hr cm | rain mn cm | humidity % | barometer mb |
| 20260505082108 | 15 | 267 | 3.2 | 4.8 | 0.00 | 0.18 | 0.03 | 86 | 1010.6 |
| 20260505081750 | 15 | 195 | 1.6 | 8.0 | 0.00 | 0.18 | 0.03 | 85 | 1010.7 |
| 20260505081734 | 15 | 250 | 3.2 | 3.2 | 0.03 | 0.18 | 0.03 | 85 | 1010.6 |
| 20260505081609 | 15 | 203 | 6.4 | 1.6 | 0.00 | 0.18 | 0.03 | 86 | 1010.6 |
| 20260505081143 | 15 | 235 | 3.2 | 3.2 | 0.00 | 0.18 | 0.03 | 86 | 1010.6 |
| 20260505081105 | 15 | 235 | 3.2 | 3.2 | 0.00 | 0.18 | 0.03 | 86 | 1010.6 |
| 20260505080607 | 15 | 249 | 1.6 | 1.6 | 0.00 | 0.18 | 0.03 | 86 | 1010.6 |
| 20260505080108 | 15 | 283 | 4.8 | 3.2 | 0.00 | 0.18 | 0.03 | 85 | 1010.7 |
| 20260505075604 | 15 | 195 | 1.6 | 8.0 | 0.00 | 0.18 | 0.03 | 85 | 1010.7 |
| 20260505075105 | 15 | 260 | 4.8 | 1.6 | 0.00 | 0.18 | 0.03 | 85 | 1010.6 |
| 20260505074659 | 15 | 250 | 3.2 | 3.2 | 0.03 | 0.18 | 0.03 | 85 | 1010.6 |
| 20260505074605 | 15 | 250 | 3.2 | 3.2 | 0.03 | 0.18 | 0.03 | 85 | 1010.6 |
| 20260505074102 | 15 | 243 | 3.2 | 1.6 | 0.03 | 0.18 | 0.03 | 85 | 1010.6 |
| 20260505073603 | 15 | 259 | 3.2 | 1.6 | 0.03 | 0.18 | 0.03 | 85 | 1010.6 |
| 20260505073104 | 15 | 298 | 3.2 | 8.0 | 0.03 | 0.18 | 0.03 | 85 | 1010.6 |
| 20260505072601 | 15 | 309 | 3.2 | 4.8 | 0.03 | 0.18 | 0.03 | 85 | 1010.6 |
| 20260505072102 | 15 | 256 | 3.2 | 1.6 | 0.03 | 0.18 | 0.03 | 85 | 1010.5 |
| 20260505071603 | 15 | 222 | 4.8 | 3.2 | 0.03 | 0.18 | 0.03 | 85 | 1010.5 |
| 20260505071347 | 15 | 297 | 3.2 | 6.4 | 0.03 | 0.18 | 0.03 | 84 | 1010.5 |
| 20260505071100 | 15 | 328 | 1.6 | 3.2 | 0.03 | 0.18 | 0.03 | 85 | 1010.5 |
| 20260505070924 | 15 | 218 | 3.2 | 3.2 | 0.03 | 0.18 | 0.03 | 84 | 1010.5 |
| 20260505070601 | 15 | 218 | 3.2 | 3.2 | 0.03 | 0.18 | 0.03 | 84 | 1010.5 |
| 20260505065600 | 15 | 235 | 3.2 | 1.6 | 0.03 | 0.18 | 0.03 | 84 | 1010.5 |
| 20260505065314 | 15 | 297 | 3.2 | 6.4 | 0.03 | 0.18 | 0.03 | 84 | 1010.5 |
| 20260505065101 | 15 | 297 | 3.2 | 6.4 | 0.03 | 0.18 | 0.03 | 84 | 1010.5 |
| 20260505064602 | 15 | 280 | 3.2 | 3.2 | 0.00 | 0.18 | 0.03 | 83 | 1010.6 |
| 20260505064142 | 15 | 210 | 4.8 | 1.6 | 0.00 | 0.18 | 0.03 | 82 | 1010.7 |
| 20260505064134 | 15 | 329 | 6.4 | 1.6 | 0.00 | 0.18 | 0.00 | 81 | 1010.7 |
| 20260505064100 | 15 | 239 | 1.6 | 3.2 | 0.00 | 0.18 | 0.03 | 83 | 1010.5 |
| 20260505063600 | 15 | 246 | 1.6 | 4.8 | 0.00 | 0.18 | 0.03 | 83 | 1010.5 |
| 20260505063101 | 15 | 215 | 1.6 | 3.2 | 0.00 | 0.18 | 0.03 | 82 | 1010.5 |
| 20260505062559 | 15 | 229 | 4.8 | 1.6 | 0.00 | 0.18 | 0.03 | 82 | 1010.6 |
| 20260505062100 | 15 | 188 | 3.2 | 1.6 | 0.00 | 0.18 | 0.03 | 82 | 1010.6 |
| 20260505061601 | 15 | 210 | 4.8 | 1.6 | 0.00 | 0.18 | 0.03 | 82 | 1010.7 |
| 20260505061058 | 15 | 329 | 6.4 | 1.6 | 0.00 | 0.18 | 0.00 | 81 | 1010.7 |
| 20260505060942 | 15 | 225 | 1.6 | 1.6 | 0.03 | 0.18 | 0.00 | 80 | 1010.9 |
| 20260505060635 | 15 | 270 | 4.8 | 8.0 | 0.00 | 0.18 | 0.00 | 81 | 1010.7 |
| 20260505060559 | 15 | 270 | 4.8 | 8.0 | 0.00 | 0.18 | 0.00 | 81 | 1010.7 |
| 20260505060100 | 15 | 255 | 6.4 | 3.2 | 0.00 | 0.18 | 0.00 | 81 | 1010.8 |
| 20260505055556 | 15 | 322 | 0.0 | 1.6 | 0.00 | 0.18 | 0.00 | 80 | 1010.8 |
| 20260505055057 | 15 | 255 | 3.2 | 4.8 | 0.00 | 0.18 | 0.00 | 80 | 1010.8 |
| 20260505054558 | 15 | 225 | 1.6 | 1.6 | 0.03 | 0.18 | 0.00 | 80 | 1010.9 |
| 20260505054128 | 15 | 194 | 3.2 | 4.8 | 0.03 | 0.18 | 0.00 | 80 | 1010.8 |
| 20260505054055 | 15 | 194 | 3.2 | 4.8 | 0.03 | 0.18 | 0.00 | 80 | 1010.8 |
| 20260505053556 | 15 | 218 | 1.6 | 0.0 | 0.03 | 0.18 | 0.00 | 79 | 1010.8 |
| 20260505053057 | 15 | 243 | 1.6 | 0.0 | 0.03 | 0.18 | 0.00 | 79 | 1010.7 |
| 20260505052555 | 16 | 179 | 1.6 | 3.2 | 0.03 | 0.18 | 0.00 | 79 | 1010.8 |
| 20260505052056 | 16 | 242 | 4.8 | 4.8 | 0.03 | 0.18 | 0.00 | 78 | 1010.8 |
| 20260505051131 | 16 | 217 | 3.2 | 4.8 | 0.03 | 0.18 | 0.00 | 78 | 1011.0 |
| 20260505051054 | 16 | 217 | 3.2 | 4.8 | 0.03 | 0.18 | 0.00 | 78 | 1011.0 |
| 20260505050554 | 16 | 181 | 1.6 | 0.0 | 0.03 | 0.18 | 0.00 | 78 | 1011.0 |
| 20260505050546 | 16 | 219 | 4.8 | 3.2 | 0.00 | 1.40 | 0.18 | 76 | 1011.2 |
| 20260505050538 | 16 | 193 | 3.2 | 3.2 | 0.00 | 1.40 | 0.15 | 76 | 1011.2 |
| 20260505050532 | 16 | 204 | 3.2 | 3.2 | 0.00 | 1.40 | 0.15 | 75 | 1011.3 |
| 20260505041550 | 16 | 186 | 3.2 | 3.2 | 0.00 | 1.40 | 0.15 | 74 | 1011.3 |
| 20260505041121 | 16 | 232 | 1.6 | 4.8 | 0.00 | 1.40 | 0.15 | 73 | 1011.3 |
| 20260505041047 | 16 | 232 | 1.6 | 4.8 | 0.00 | 1.40 | 0.15 | 73 | 1011.3 |
| 20260505040548 | 16 | 134 | 6.4 | 1.6 | 0.00 | 1.40 | 0.15 | 73 | 1011.4 |
| 20260505040215 | 16 | 271 | 3.2 | 9.7 | 0.00 | 1.40 | 0.15 | 72 | 1011.4 |
| 20260505040049 | 16 | 271 | 3.2 | 9.7 | 0.00 | 1.40 | 0.15 | 72 | 1011.4 |
| 20260505035706 | 16 | 173 | 3.2 | 4.8 | 0.00 | 1.40 | 0.15 | 71 | 1011.4 |
| 20260505035547 | 16 | 173 | 3.2 | 4.8 | 0.00 | 1.40 | 0.15 | 71 | 1011.4 |
| 20260505035225 | 16 | 169 | 4.8 | 1.6 | 0.00 | 1.40 | 0.15 | 71 | 1011.4 |
| 20260505035048 | 16 | 169 | 4.8 | 1.6 | 0.00 | 1.40 | 0.15 | 71 | 1011.4 |
| 20260505034549 | 16 | 259 | 1.6 | 3.2 | 0.00 | 1.40 | 0.15 | 70 | 1011.4 |
| 20260505034046 | 16 | 204 | 4.8 | 3.2 | 0.00 | 1.40 | 0.15 | 69 | 1011.4 |
| 20260505033547 | 16 | 210 | 3.2 | 1.6 | 0.00 | 1.40 | 0.15 | 69 | 1011.4 |
| 20260505033048 | 16 | 231 | 3.2 | 4.8 | 0.00 | 1.40 | 0.15 | 68 | 1011.4 |
| 20260505032933 | 17 | 240 | 3.2 | 3.2 | 0.00 | 1.40 | 0.15 | 66 | 1011.6 |
| 20260505032545 | 17 | 217 | 0.0 | 4.8 | 0.00 | 1.40 | 0.15 | 68 | 1011.4 |
| 20260505032046 | 17 | 184 | 0.0 | 0.0 | 0.00 | 1.40 | 0.15 | 67 | 1011.5 |
| 20260505031547 | 17 | 194 | 4.8 | 3.2 | 0.00 | 1.40 | 0.15 | 67 | 1011.5 |
| 20260505031120 | 17 | 201 | 1.6 | 4.8 | 0.00 | 1.40 | 0.15 | 67 | 1011.6 |
| 20260505031043 | 17 | 201 | 1.6 | 4.8 | 0.00 | 1.40 | 0.15 | 67 | 1011.6 |
| 20260505030544 | 17 | 150 | 1.6 | 0.0 | 0.00 | 1.40 | 0.15 | 67 | 1011.6 |
| 20260505030045 | 17 | 240 | 3.2 | 3.2 | 0.00 | 1.40 | 0.15 | 66 | 1011.6 |
| 20260505025542 | 17 | 193 | 1.6 | 0.0 | 0.00 | 1.40 | 0.15 | 66 | 1011.6 |
| 20260505025043 | 17 | 228 | 3.2 | 4.8 | 0.00 | 1.40 | 0.15 | 66 | 1011.6 |
| 20260505024544 | 17 | 200 | 3.2 | 1.6 | 0.00 | 1.40 | 0.15 | 66 | 1011.7 |
| 20260505024041 | 17 | 195 | 3.2 | 0.0 | 0.00 | 1.40 | 0.15 | 66 | 1011.7 |
| 20260505023542 | 17 | 177 | 0.0 | 0.0 | 0.00 | 1.40 | 0.15 | 66 | 1011.7 |
| 20260505023043 | 17 | 173 | 1.6 | 0.0 | 0.00 | 1.40 | 0.15 | 65 | 1011.7 |
| 20260505022537 | 17 | 203 | 3.2 | 0.0 | 0.00 | 1.40 | 0.15 | 65 | 1011.7 |
| 20260505022529 | 17 | 191 | 4.8 | 1.6 | 0.00 | 1.40 | 0.15 | 65 | 1011.8 |
| 20260505022035 | 17 | 156 | 4.8 | 1.6 | 0.00 | 1.40 | 0.15 | 65 | 1011.7 |
| 20260505021537 | 17 | 195 | 4.8 | 6.4 | 0.00 | 1.40 | 0.15 | 65 | 1011.8 |
| 20260505021033 | 17 | 321 | 3.2 | 1.6 | 0.00 | 1.40 | 0.15 | 65 | 1011.8 |
| 20260505020534 | 17 | 200 | 3.2 | 1.6 | 0.00 | 1.40 | 0.15 | 65 | 1011.8 |
| 20260505020035 | 17 | 184 | 1.6 | 6.4 | 0.00 | 1.40 | 0.15 | 65 | 1011.8 |
| 20260505015532 | 17 | 191 | 4.8 | 1.6 | 0.00 | 1.40 | 0.15 | 65 | 1011.8 |
| 20260505015338 | 17 | 10 | 1.6 | 0.0 | 0.00 | 1.40 | 0.15 | 64 | 1011.8 |
| 20260505015033 | 17 | 198 | 3.2 | 3.2 | 0.00 | 1.40 | 0.15 | 65 | 1011.7 |
| 20260505014534 | 17 | 195 | 3.2 | 4.8 | 0.00 | 1.40 | 0.15 | 65 | 1011.7 |
| 20260505014031 | 17 | 211 | 3.2 | 6.4 | 0.00 | 1.40 | 0.15 | 64 | 1011.8 |
| 20260505013606 | 17 | 10 | 1.6 | 0.0 | 0.00 | 1.40 | 0.15 | 64 | 1011.8 |
| 20260505013532 | 17 | 10 | 1.6 | 0.0 | 0.00 | 1.40 | 0.15 | 64 | 1011.8 |
| 20260505013033 | 17 | 198 | 4.8 | 1.6 | 0.00 | 1.40 | 0.15 | 64 | 1011.8 |
| 20260505012721 | 17 | 200 | 1.6 | 3.2 | 0.00 | 1.40 | 0.15 | 64 | 1011.8 |
| 20260505012529 | 17 | 200 | 1.6 | 3.2 | 0.00 | 1.40 | 0.15 | 64 | 1011.8 |
| 20260505012125 | 17 | 222 | 4.8 | 0.0 | 0.00 | 1.40 | 0.15 | 64 | 1011.7 |
| 20260505012030 | 17 | 222 | 4.8 | 0.0 | 0.00 | 1.40 | 0.15 | 64 | 1011.7 |
| 20260505011531 | 17 | 160 | 1.6 | 1.6 | 0.00 | 1.40 | 0.15 | 64 | 1011.7 |
| 20260505011102 | 17 | 179 | 1.6 | 3.2 | 0.00 | 1.40 | 0.15 | 64 | 1011.6 |
| 20260505011028 | 17 | 179 | 1.6 | 3.2 | 0.00 | 1.40 | 0.15 | 64 | 1011.6 |
| 20260505010529 | 17 | 191 | 1.6 | 4.8 | 0.00 | 1.40 | 0.15 | 64 | 1011.6 |
| 20260505010029 | 17 | 233 | 3.2 | 1.6 | 0.00 | 1.40 | 0.15 | 64 | 1011.6 |
| 20260505005526 | 17 | 186 | 3.2 | 0.0 | 0.00 | 1.40 | 0.15 | 64 | 1011.5 |
| 20260505005108 | 17 | 212 | 1.6 | 0.0 | 0.00 | 1.40 | 0.15 | 64 | 1011.4 |
| 20260505005027 | 17 | 212 | 1.6 | 0.0 | 0.00 | 1.40 | 0.15 | 64 | 1011.4 |
| 20260505004935 | 17 | 210 | 4.8 | 6.4 | 0.00 | 1.40 | 0.15 | 63 | 1011.3 |
| 20260505004928 | 18 | 194 | 3.2 | 0.0 | 0.00 | 1.40 | 0.15 | 63 | 1011.3 |
| 20260505004528 | 17 | 228 | 6.4 | 6.4 | 0.00 | 1.40 | 0.15 | 63 | 1011.3 |
| 20260505004025 | 17 | 210 | 4.8 | 6.4 | 0.00 | 1.40 | 0.15 | 63 | 1011.3 |
| 20260505003611 | 18 | 194 | 3.2 | 0.0 | 0.00 | 1.40 | 0.15 | 63 | 1011.3 |
| 20260505003525 | 18 | 194 | 3.2 | 0.0 | 0.00 | 1.40 | 0.15 | 63 | 1011.3 |
| 20260505003153 | 18 | 197 | 4.8 | 0.0 | 0.00 | 1.40 | 0.15 | 63 | 1011.2 |
| 20260505003147 | 18 | 229 | 4.8 | 0.0 | 0.00 | 1.40 | 0.15 | 62 | 1011.2 |
| 20260505003026 | 18 | 197 | 4.8 | 0.0 | 0.00 | 1.40 | 0.15 | 63 | 1011.2 |
| 20260505002603 | 18 | 229 | 4.8 | 0.0 | 0.00 | 1.40 | 0.15 | 62 | 1011.2 |
| 20260505002522 | 18 | 229 | 4.8 | 0.0 | 0.00 | 1.40 | 0.15 | 62 | 1011.2 |
| 20260505002023 | 18 | 211 | 1.6 | 3.2 | 0.00 | 1.40 | 0.15 | 62 | 1011.2 |
| 20260505001737 | 18 | 193 | 4.8 | 0.0 | 0.00 | 1.40 | 0.15 | 58 | 1010.8 |
| 20260505001731 | 19 | 149 | 3.2 | 0.0 | 0.00 | 1.40 | 0.15 | 57 | 1010.8 |
| 20260505001603 | 18 | 276 | 1.6 | 6.4 | 0.00 | 1.40 | 0.15 | 61 | 1011.1 |
| 20260505001524 | 18 | 276 | 1.6 | 6.4 | 0.00 | 1.40 | 0.15 | 61 | 1011.1 |
| 20260505001210 | 18 | 229 | 3.2 | 4.8 | 0.00 | 1.40 | 0.15 | 61 | 1011.0 |
| 20260505001021 | 18 | 229 | 3.2 | 4.8 | 0.00 | 1.40 | 0.15 | 61 | 1011.0 |
| 20260505000725 | 18 | 211 | 0.0 | 1.6 | 0.00 | 1.40 | 0.15 | 60 | 1010.9 |
| 20260505000522 | 18 | 211 | 0.0 | 1.6 | 0.00 | 1.40 | 0.15 | 60 | 1010.9 |
| 20260505000022 | 18 | 208 | 3.2 | 6.4 | 0.00 | 1.40 | 0.15 | 59 | 1010.8 |
| 20260504235519 | 18 | 193 | 4.8 | 0.0 | 0.00 | 1.40 | 0.15 | 58 | 1010.8 |
| 20260504235020 | 19 | 149 | 3.2 | 0.0 | 0.00 | 1.40 | 0.15 | 57 | 1010.8 |
| 20260504234535 | 20 | 316 | 0.0 | 0.0 | 0.00 | 1.40 | 0.15 | 52 | 1010.5 |
| 20260504234521 | 19 | 177 | 0.0 | 0.0 | 0.00 | 1.40 | 0.15 | 56 | 1010.8 |
| 20260504234018 | 19 | 177 | 0.0 | 0.0 | 0.00 | 1.40 | 0.15 | 55 | 1010.7 |
| 20260504233555 | 19 | 186 | 3.2 | 0.0 | 0.00 | 1.40 | 0.15 | 55 | 1010.7 |
| 20260504233518 | 19 | 186 | 3.2 | 0.0 | 0.00 | 1.40 | 0.15 | 55 | 1010.7 |
| 20260504233059 | 20 | 281 | 1.6 | 3.2 | 0.00 | 1.40 | 0.15 | 54 | 1010.6 |
| 20260504233019 | 20 | 281 | 1.6 | 3.2 | 0.00 | 1.40 | 0.15 | 54 | 1010.6 |
| 20260504232516 | 20 | 160 | 0.0 | 0.0 | 0.00 | 1.40 | 0.15 | 53 | 1010.6 |
| 20260504232101 | 20 | 316 | 0.0 | 0.0 | 0.00 | 1.40 | 0.15 | 52 | 1010.5 |
| 20260504232017 | 20 | 316 | 0.0 | 0.0 | 0.00 | 1.40 | 0.15 | 52 | 1010.5 |
| 20260504231518 | 20 | 297 | 3.2 | 6.4 | 0.00 | 1.40 | 0.15 | 52 | 1010.5 |
| 20260504231328 | 21 | 256 | 4.8 | 4.8 | 0.00 | 1.40 | 0.15 | 51 | 1010.4 |
| 20260504231014 | 20 | 249 | 3.2 | 1.6 | 0.00 | 1.40 | 0.15 | 52 | 1010.5 |
| 20260504230515 | 20 | 239 | 4.8 | 0.0 | 0.00 | 1.40 | 0.15 | 51 | 1010.4 |
| 20260504230016 | 20 | 158 | 3.2 | 4.8 | 0.00 | 1.40 | 0.15 | 51 | 1010.4 |
| 20260504225513 | 20 | 262 | 1.6 | 8.0 | 0.00 | 1.40 | 0.15 | 50 | 1010.5 |
| 20260504225014 | 20 | 239 | 0.0 | 6.4 | 0.00 | 1.40 | 0.15 | 50 | 1010.4 |
| 20260504224514 | 21 | 256 | 4.8 | 4.8 | 0.00 | 1.40 | 0.15 | 51 | 1010.4 |
| 20260504224123 | 21 | 205 | 3.2 | 0.0 | 0.00 | 1.40 | 0.15 | 50 | 1010.4 |
| 20260504224011 | 21 | 163 | 0.0 | 3.2 | 0.00 | 1.40 | 0.15 | 51 | 1010.3 |
| 20260504223512 | 21 | 156 | 1.6 | 0.0 | 0.00 | 1.40 | 0.15 | 51 | 1010.3 |
| 20260504222508 | 21 | 153 | 3.2 | 0.0 | 0.00 | 1.40 | 0.15 | 51 | 1010.3 |
| 20260504222009 | 21 | 228 | 3.2 | 4.8 | 0.00 | 1.40 | 0.15 | 51 | 1010.3 |
| 20260504221510 | 21 | 124 | 6.4 | 1.6 | 0.00 | 1.40 | 0.15 | 50 | 1010.4 |
| 20260504221126 | 21 | 205 | 3.2 | 0.0 | 0.00 | 1.40 | 0.15 | 50 | 1010.4 |
| 20260504221007 | 21 | 205 | 3.2 | 0.0 | 0.00 | 1.40 | 0.15 | 50 | 1010.4 |
| 20260504220931 | 22 | 302 | 1.6 | 4.8 | 0.03 | 1.40 | 0.15 | 49 | 1010.3 |
| 20260504220926 | 22 | 170 | 1.6 | 0.0 | 0.03 | 1.40 | 0.15 | 48 | 1010.3 |
| 20260504220508 | 21 | 200 | 4.8 | 0.0 | 0.00 | 1.40 | 0.15 | 50 | 1010.4 |
| 20260504215505 | 21 | 162 | 6.4 | 6.4 | 0.00 | 1.40 | 0.15 | 49 | 1010.4 |
| 20260504215004 | 22 | 246 | 3.2 | 1.6 | 0.00 | 1.40 | 0.15 | 49 | 1010.4 |
| 20260504214503 | 22 | 302 | 1.6 | 4.8 | 0.03 | 1.40 | 0.15 | 49 | 1010.3 |
| 20260504213959 | 22 | 170 | 1.6 | 0.0 | 0.03 | 1.40 | 0.15 | 48 | 1010.3 |
| 20260504213738 | 22 | 212 | 6.4 | 6.4 | 0.03 | 1.40 | 0.15 | 47 | 1010.3 |
| 20260504213728 | 22 | 256 | 4.8 | 0.0 | 0.03 | 1.40 | 0.15 | 48 | 1010.3 |
| 20260504213500 | 22 | 225 | 6.4 | 8.0 | 0.03 | 1.40 | 0.15 | 47 | 1010.3 |
| 20260504213036 | 22 | 194 | 3.2 | 8.0 | 0.03 | 1.40 | 0.15 | 47 | 1010.3 |
| 20260504213001 | 22 | 194 | 3.2 | 8.0 | 0.03 | 1.40 | 0.15 | 47 | 1010.3 |
| 20260504212457 | 22 | 249 | 6.4 | 0.0 | 0.03 | 1.40 | 0.15 | 47 | 1010.4 |
| 20260504211958 | 22 | 212 | 6.4 | 6.4 | 0.03 | 1.40 | 0.15 | 47 | 1010.3 |
| 20260504211530 | 22 | 256 | 4.8 | 0.0 | 0.03 | 1.40 | 0.15 | 48 | 1010.3 |
| 20260504211458 | 22 | 256 | 4.8 | 0.0 | 0.03 | 1.40 | 0.15 | 48 | 1010.3 |
| 20260504211032 | 22 | 169 | 4.8 | 0.0 | 0.03 | 1.40 | 0.15 | 48 | 1010.3 |
| 20260504210955 | 22 | 169 | 4.8 | 0.0 | 0.03 | 1.40 | 0.15 | 48 | 1010.3 |
| 20260504210533 | 22 | 259 | 1.6 | 3.2 | 0.05 | 1.40 | 0.15 | 50 | 1010.2 |
| 20260504210524 | 22 | 139 | 3.2 | 3.2 | 0.05 | 1.40 | 0.15 | 51 | 1010.2 |
| 20260504210456 | 22 | 179 | 3.2 | 4.8 | 0.03 | 1.40 | 0.15 | 47 | 1010.3 |
| 20260504205956 | 22 | 174 | 6.4 | 4.8 | 0.03 | 1.40 | 0.15 | 47 | 1010.3 |
| 20260504205453 | 23 | 273 | 6.4 | 6.4 | 0.03 | 1.40 | 0.15 | 47 | 1010.3 |
| 20260504204953 | 23 | 179 | 3.2 | 0.0 | 0.03 | 1.40 | 0.15 | 50 | 1010.2 |
| 20260504204537 | 22 | 197 | 4.8 | 3.2 | 0.05 | 1.40 | 0.15 | 50 | 1010.2 |
| 20260504204454 | 22 | 197 | 4.8 | 3.2 | 0.05 | 1.40 | 0.15 | 50 | 1010.2 |
| 20260504203950 | 22 | 259 | 1.6 | 3.2 | 0.05 | 1.40 | 0.15 | 50 | 1010.2 |
| 20260504203451 | 22 | 139 | 3.2 | 3.2 | 0.05 | 1.40 | 0.15 | 51 | 1010.2 |
| 20260504203147 | 22 | 181 | 1.6 | 1.6 | 0.05 | 1.40 | 0.15 | 52 | 1010.3 |
| 20260504202952 | 23 | 274 | 1.6 | 3.2 | 0.05 | 1.40 | 0.15 | 52 | 1010.2 |
| 20260504202448 | 23 | 235 | 4.8 | 3.2 | 0.05 | 1.40 | 0.15 | 51 | 1010.1 |
| 20260504201949 | 22 | 153 | 3.2 | 0.0 | 0.05 | 1.40 | 0.15 | 51 | 1010.2 |
| 20260504201450 | 22 | 236 | 4.8 | 4.8 | 0.05 | 1.40 | 0.15 | 51 | 1010.1 |
| 20260504200942 | 22 | 167 | 4.8 | 1.6 | 0.05 | 1.40 | 0.15 | 52 | 1010.2 |
| 20260504200521 | 22 | 181 | 1.6 | 1.6 | 0.05 | 1.40 | 0.15 | 52 | 1010.3 |
| 20260504200442 | 22 | 181 | 1.6 | 1.6 | 0.05 | 1.40 | 0.15 | 52 | 1010.3 |
| 20260504200126 | 23 | 167 | 3.2 | 4.8 | 0.00 | 1.40 | 0.10 | 49 | 1010.4 |
| 20260504195943 | 22 | 118 | 0.0 | 0.0 | 0.05 | 1.40 | 0.15 | 51 | 1010.3 |
| 20260504195438 | 23 | 113 | 1.6 | 4.8 | 0.05 | 1.40 | 0.13 | 51 | 1010.4 |
| 20260504194939 | 23 | 218 | 3.2 | 0.0 | 0.00 | 1.40 | 0.13 | 51 | 1010.6 |
| 20260504194636 | 23 | 100 | 1.6 | 4.8 | 0.00 | 1.40 | 0.13 | 50 | 1010.6 |
| 20260504194440 | 23 | 100 | 1.6 | 4.8 | 0.00 | 1.40 | 0.13 | 50 | 1010.6 |
| 20260504194015 | 23 | 104 | 3.2 | 0.0 | 0.00 | 1.40 | 0.10 | 49 | 1010.4 |
| 20260504193936 | 23 | 104 | 3.2 | 0.0 | 0.00 | 1.40 | 0.10 | 49 | 1010.4 |
| 20260504193514 | 23 | 167 | 3.2 | 4.8 | 0.00 | 1.40 | 0.10 | 49 | 1010.4 |
| 20260504193436 | 23 | 167 | 3.2 | 4.8 | 0.00 | 1.40 | 0.10 | 49 | 1010.4 |
| 20260504192936 | 23 | 111 | 3.2 | 0.0 | 0.00 | 1.40 | 0.10 | 48 | 1010.6 |
| 20260504192928 | 25 | 263 | 3.2 | 4.8 | 0.00 | 1.40 | 0.08 | 40 | 1010.8 |
| 20260504192538 | 24 | 163 | 1.6 | 0.0 | 0.00 | 1.40 | 0.10 | 47 | 1010.5 |
| 20260504192506 | 24 | 163 | 1.6 | 0.0 | 0.00 | 1.40 | 0.10 | 47 | 1010.5 |
| 20260504192418 | 24 | 163 | 1.6 | 0.0 | 0.00 | 1.40 | 0.10 | 47 | 1010.5 |
| 20260504191450 | 25 | 259 | 0.0 | 9.7 | 0.00 | 1.40 | 0.10 | 45 | 1010.7 |
| 20260504191416 | 25 | 259 | 0.0 | 9.7 | 0.00 | 1.40 | 0.10 | 45 | 1010.7 |
| 20260504190415 | 25 | 263 | 3.2 | 4.8 | 0.00 | 1.40 | 0.08 | 40 | 1010.8 |
| 20260504185443 | 26 | 228 | 4.8 | 1.6 | 0.00 | 1.40 | 0.08 | 44 | 1010.9 |
| 20260504185411 | 26 | 228 | 4.8 | 1.6 | 0.00 | 1.40 | 0.08 | 44 | 1010.9 |
| 20260504184946 | 26 | 218 | 3.2 | 4.8 | 0.00 | 1.40 | 0.08 | 40 | 1011.0 |
| 20260504184911 | 26 | 218 | 3.2 | 4.8 | 0.00 | 1.40 | 0.08 | 40 | 1011.0 |
| 20260504184444 | 26 | 235 | 0.0 | 11.3 | 0.00 | 1.40 | 0.08 | 33 | 1011.1 |
| 20260504184411 | 26 | 235 | 0.0 | 11.3 | 0.00 | 1.40 | 0.08 | 33 | 1011.1 |
| 20260504183908 | 26 | 266 | 0.0 | 0.0 | 0.00 | 1.40 | 0.08 | 33 | 1011.1 |
| 20260504183409 | 26 | 176 | 3.2 | 0.0 | 0.00 | 1.40 | 0.08 | 33 | 1011.2 |
| 20260504182910 | 26 | 329 | 1.6 | 3.2 | 0.00 | 1.40 | 0.08 | 33 | 1011.2 |
| 20260504182529 | 26 | 158 | 0.0 | 4.8 | 0.00 | 1.40 | 0.08 | 33 | 1011.4 |
| 20260504182516 | 26 | 329 | 1.6 | 1.6 | 0.00 | 1.40 | 0.08 | 34 | 1011.5 |
| 20260504182440 | 26 | 194 | 0.0 | 0.0 | 0.00 | 1.40 | 0.08 | 33 | 1011.3 |
| 20260504182407 | 26 | 194 | 0.0 | 0.0 | 0.00 | 1.40 | 0.08 | 33 | 1011.3 |
| 20260504181908 | 26 | 201 | 4.8 | 3.2 | 0.00 | 1.40 | 0.08 | 33 | 1011.3 |
| 20260504181455 | 26 | 271 | 1.6 | 4.8 | 0.00 | 1.40 | 0.08 | 33 | 1011.3 |
| 20260504181408 | 26 | 271 | 1.6 | 4.8 | 0.00 | 1.40 | 0.08 | 33 | 1011.3 |
| 20260504180904 | 26 | 204 | 4.8 | 4.8 | 0.00 | 1.40 | 0.08 | 32 | 1011.4 |
| 20260504180446 | 26 | 158 | 0.0 | 4.8 | 0.00 | 1.40 | 0.08 | 33 | 1011.4 |
| 20260504180405 | 26 | 158 | 0.0 | 4.8 | 0.00 | 1.40 | 0.08 | 33 | 1011.4 |
| 20260504175402 | 26 | 329 | 1.6 | 1.6 | 0.00 | 1.40 | 0.08 | 34 | 1011.5 |
| 20260504175326 | 26 | 277 | 0.0 | 0.0 | 0.03 | 1.40 | 0.08 | 34 | 1011.8 |
| 20260504174902 | 26 | 359 | 1.6 | 0.0 | 0.03 | 1.40 | 0.08 | 34 | 1011.7 |
| 20260504174510 | 26 | 287 | 1.6 | 1.6 | 0.03 | 1.40 | 0.08 | 34 | 1011.7 |
| 20260504174403 | 26 | 287 | 1.6 | 1.6 | 0.03 | 1.40 | 0.08 | 34 | 1011.7 |
| 20260504173436 | 26 | 235 | 4.8 | 4.8 | 0.03 | 1.40 | 0.08 | 34 | 1011.9 |
| 20260504173400 | 26 | 235 | 4.8 | 4.8 | 0.03 | 1.40 | 0.08 | 34 | 1011.9 |
| 20260504172900 | 26 | 277 | 0.0 | 0.0 | 0.03 | 1.40 | 0.08 | 34 | 1011.8 |
| 20260504172357 | 26 | 302 | 0.0 | 4.8 | 0.03 | 1.40 | 0.08 | 35 | 1011.9 |
| 20260504172126 | 25 | 190 | 1.6 | 3.2 | 0.03 | 1.40 | 0.08 | 36 | 1012.2 |
| 20260504172118 | 25 | 215 | 0.0 | 8.0 | 0.03 | 1.40 | 0.08 | 37 | 1012.2 |
| 20260504171858 | 26 | 218 | 0.0 | 3.2 | 0.03 | 1.40 | 0.08 | 35 | 1012.0 |
| 20260504171359 | 25 | 203 | 0.0 | 0.0 | 0.03 | 1.40 | 0.08 | 36 | 1012.1 |
| 20260504170855 | 25 | 297 | 0.0 | 0.0 | 0.03 | 1.40 | 0.08 | 36 | 1012.1 |
| 20260504170441 | 25 | 203 | 1.6 | 0.0 | 0.03 | 1.40 | 0.08 | 36 | 1012.2 |
| 20260504170356 | 25 | 203 | 1.6 | 0.0 | 0.03 | 1.40 | 0.08 | 36 | 1012.2 |
| 20260504160349 | 23 | 162 | 0.0 | 0.0 | 0.00 | 1.40 | 0.05 | 41 | 1012.8 |
| 20260504150915 | 20 | 225 | 1.6 | 1.6 | 0.00 | 1.40 | 0.05 | 48 | 1013.2 |
| 20260504150913 | 20 | 212 | 4.8 | 3.2 | 0.00 | 1.40 | 0.05 | 49 | 1013.3 |
| 20260504150842 | 20 | 225 | 1.6 | 1.6 | 0.00 | 1.40 | 0.05 | 48 | 1013.2 |
| 20260504150735 | 20 | 212 | 4.8 | 3.2 | 0.00 | 1.40 | 0.05 | 49 | 1013.3 |
| 20260504150343 | 20 | 212 | 4.8 | 3.2 | 0.00 | 1.40 | 0.05 | 49 | 1013.3 |
| 20260504140939 | 18 | 336 | 3.2 | 0.0 | 0.03 | 1.40 | 0.05 | 49 | 1013.6 |
| 20260504140913 | 17 | 233 | 6.4 | 3.2 | 0.00 | 1.40 | 0.05 | 54 | 1013.9 |
| 20260504140837 | 18 | 336 | 3.2 | 0.0 | 0.03 | 1.40 | 0.05 | 49 | 1013.6 |
| 20260504140338 | 18 | 204 | 3.2 | 0.0 | 0.03 | 1.40 | 0.05 | 50 | 1013.6 |
| 20260504130525 | 15 | 83 | 3.2 | 0.0 | 0.00 | 1.40 | 0.03 | 61 | 1014.3 |
| 20260504130518 | 15 | 231 | 1.6 | 4.8 | 0.00 | 1.40 | 0.03 | 62 | 1014.4 |
| 20260504130508 | 15 | 277 | 1.6 | 0.0 | 0.00 | 1.40 | 0.03 | 63 | 1014.4 |
| 20260504130334 | 16 | 201 | 3.2 | 4.8 | 0.00 | 1.40 | 0.03 | 59 | 1014.1 |
| 20260504120308 | 15 | 287 | 4.8 | 3.2 | 0.00 | 1.40 | 0.03 | 65 | 1014.6 |
| 20260504120123 | 16 | 284 | 4.8 | 11.3 | 0.00 | 1.40 | 0.03 | 64 | 1014.8 |
| 20260504120119 | 16 | 188 | 1.6 | 1.6 | 0.00 | 1.40 | 0.03 | 65 | 1014.8 |
| 20260504120114 | 16 | 294 | 3.2 | 4.8 | 0.00 | 1.40 | 0.03 | 64 | 1014.8 |
| 20260504110349 | 12 | 243 | 3.2 | 3.2 | 0.00 | 1.40 | 0.03 | 73 | 1015.1 |
| 20260504110303 | 12 | 243 | 3.2 | 3.2 | 0.00 | 1.40 | 0.03 | 73 | 1015.1 |
| 20260504100300 | 8 | 217 | 1.6 | 1.6 | 0.00 | 1.40 | 0.03 | 77 | 1014.8 |